Probability
0 0 0 0 0 0 0 0 0 0 0 0 0 0 0 0 0 0 0 0 0 0 1 2 3 2 1 0 0 0 0 1 2 2 1 0 0 0 0 0 0 1 2 1 0 1 1 1 0
0 0 0 0 0 0 0 0 0 0 0 0 0 0 0 0 0 0 0 0 0 0 1 2 3 2 1 0 0 0 0 0 1 1 1 0 0 0 0 0 0 1 2 2 1 0 1 1 1
0 0 0 0 0 0 0 0 0 0 0 0 0 0 0 0 0 0 0 1 1 0 1 2 2 1 0 0 0 0 0 0 0 0 0 0 0 0 0 0 0 0 1 2 2 1 0 1 1
0 0 0 0 0 0 0 0 0 0 0 0 0 0 0 0 0 0 1 2 2 1 1 2 2 1 0 0 0 0 0 1 1 0 0 0 0 0 0 0 0 0 1 2 3 2 1 0 1
0 0 0 0 0 0 0 0 0 0 0 0 0 0 0 0 0 0 1 2 2 1 1 2 3 2 1 0 0 0 0 1 1 0 0 0 0 0 0 0 0 0 1 1 2 2 1 0 0
0 0 0 0 0 0 0 0 0 0 0 0 0 0 0 0 0 1 1 1 2 2 2 2 3 3 2 1 1 0 0 0 0 0 0 0 0 0 0 0 0 1 1 1 2 2 1 0 0
0 0 0 0 0 0 0 0 0 0 0 0 0 0 0 0 0 0 0 1 1 2 2 3 2 3 3 3 2 1 0 0 1 1 1 1 0 0 0 0 0 1 2 3 4 2 1 0 0
0 0 0 0 0 0 0 0 0 0 0 0 0 0 0 0 0 0 0 0 0 1 2 3 3 3 3 3 3 2 1 1 2 2 2 2 1 0 0 0 0 0 1 3 4 2 0 0 0
0 0 0 0 0 0 0 0 0 0 0 0 0 0 0 0 0 0 0 0 0 0 1 2 3 3 3 3 3 3 3 3 3 3 3 3 2 1 0 0 0 0 0 1 2 2 0 0 0
0 0 0 0 0 0 0 0 0 0 0 0 0 0 0 0 0 0 0 0 0 0 0 1 2 3 3 3 3 3 3 3 3 3 3 3 2 1 0 0 0 0 0 0 1 1 0 0 0
0 0 0 0 0 0 0 0 0 0 0 0 0 0 0 0 0 0 0 0 0 0 0 0 1 3 3 3 3 3 3 3 3 3 3 3 3 1 0 0 0 0 0 0 0 0 0 0 0
0 0 0 0 0 0 0 0 0 0 0 0 0 0 0 0 0 0 0 0 0 0 0 0 1 2 3 3 3 3 3 3 3 3 3 3 3 2 1 0 0 0 0 0 0 0 0 0 0
0 0 0 0 0 0 0 0 0 0 0 0 0 0 0 0 0 0 0 0 0 0 0 0 0 1 2 3 3 3 3 3 3 3 3 3 3 2 1 0 0 0 0 0 0 0 0 0 0
0 0 0 0 0 0 0 0 0 0 0 0 0 0 0 0 0 0 0 0 0 0 0 0 0 0 1 2 3 3 3 3 3 3 3 3 3 3 1 0 0 0 0 0 0 0 0 0 0
0 0 0 0 0 0 0 0 0 0 0 0 0 0 0 0 0 0 0 0 0 0 0 0 0 0 0 1 2 3 3 3 3 3 3 3 3 3 2 0 0 0 0 0 0 0 0 0 0
0 0 0 0 0 0 0 0 0 0 0 0 0 0 0 0 0 0 0 0 0 0 0 0 0 0 0 0 1 2 2 2 2 2 2 2 2 2 1 0 0 0 0 1 1 0 0 0 0
0 0 0 0 0 0 0 0 0 0 0 0 0 0 0 0 0 0 0 0 0 0 0 0 0 0 0 0 0 1 1 1 1 1 1 1 1 1 0 0 0 0 0 1 1 0 0 0 0
0 0 0 0 0 0 0 0 0 0 0 0 0 0 0 0 0 0 0 0 0 0 0 0 0 0 0 0 0 0 0 0 0 0 0 0 0 0 0 0 0 0 0 1 1 0 0 0 0
0 0 0 0 0 0 0 0 0 0 0 0 0 0 0 0 0 0 0 0 0 0 0 0 0 0 0 0 0 0 0 0 0 0 0 0 0 0 0 0 0 0 0 0 0 0 0 0 0
0 0 0 0 0 0 0 0 0 0 0 0 0 0 0 0 0 0 0 0 0 0 0 0 0 0 0 0 0 0 0 0 0 0 0 0 0 0 0 0 0 0 0 0 0 0 0 0 0
0 0 0 0 0 0 0 0 0 0 0 0 0 0 0 0 0 0 0 0 0 0 0 0 0 0 0 0 0 0 0 0 0 0 0 0 0 0 0 0 0 0 0 0 0 0 0 0 0
0 0 0 0 0 0 0 0 0 0 0 0 0 0 0 0 0 0 0 0 0 0 0 0 0 0 0 0 0 0 0 0 0 0 0 0 0 0 0 0 0 0 0 0 0 0 0 0 0
0 0 0 0 0 0 0 0 0 0 0 0 0 0 0 0 0 0 0 0 0 0 0 0 0 0 0 0 0 0 0 0 0 0 0 0 0 0 0 0 0 0 0 0 0 0 0 0 0
0 0 0 0 0 0 0 0 0 0 0 0 0 0 0 0 0 0 0 0 0 0 0 0 0 1 1 1 0 0 0 0 0 0 0 0 0 0 0 0 0 0 0 0 0 0 0 0 0
0 0 0 0 0 0 0 0 0 0 0 0 0 0 0 0 0 0 0 0 0 0 0 0 0 1 1 1 0 0 0 0 0 0 0 0 0 0 0 0 0 0 0 0 0 0 0 0 0
0 0 0 0 0 0 0 0 0 0 0 0 0 0 0 0 0 0 0 0 0 0 0 0 0 0 0 0 0 0 0 0 0 0 0 0 0 0 0 0 0 0 0 0 0 0 0 0 0
0 0 0 0 0 0 0 0 0 0 0 0 0 0 0 0 0 0 0 0 0 0 0 0 0 0 0 0 0 0 0 0 0 0 0 0 0 0 0 0 0 0 0 0 0 0 0 0 0
0 0 0 0 0 0 0 0 0 0 0 0 0 0 0 0 0 0 0 0 0 0 0 0 0 0 0 0 0 0 0 0 0 0 0 0 0 0 0 0 0 0 0 0 0 0 0 0 0
0 0 0 0 0 0 0 0 0 0 0 0 0 0 0 0 0 0 0 0 0 0 0 0 0 0 0 0 0 0 0 0 0 0 0 0 0 0 0 0 0 0 0 0 0 0 0 0 0
0 0 0 0 0 0 0 0 0 0 0 0 0 0 0 0 0 0 0 0 0 0 0 0 0 0 0 0 0 0 0 0 0 0 0 0 0 0 0 0 0 0 0 0 0 0 0 0 0
Wind_Speed
7 3 2 5 7 5 2 4 2 2 1 0 1 3 5 4 4 3 0 1 2 1 1 2 5 7 8 9 9 9 10 10 10 10 10 11 11 11 11 11 11 11 11 11 11 12 11 11 11
2 2 5 6 5 2 5 4 4 3 3 3 4 4 4 2 2 3 1 1 2 2 2 2 7 8 9 9 9 9 9 9 10 10 10 10 10 10 10 10 10 11 11 11 11 11 11 11 11
1 4 5 5 4 6 5 3 4 1 2 2 3 3 2 1 1 1 0 1 3 3 3 3 8 9 9 9 9 9 9 9 9 9 10 10 10 10 10 10 10 10 11 11 11 11 11 11 10
3 5 6 5 4 4 3 2 3 4 2 3 4 3 2 2 1 0 2 3 5 5 4 4 8 9 9 9 9 9 9 9 9 9 9 9 9 9 10 10 10 10 10 10 10 10 10 10 10
5 5 4 1 4 3 2 1 4 3 3 2 3 4 1 3 3 3 4 5 5 5 5 5 9 9 9 9 9 9 9 9 9 9 9 9 9 9 10 9 9 9 9 9 10 10 9 10 10
5 5 4 4 4 2 1 2 3 2 2 3 4 4 2 2 3 3 4 5 5 5 5 6 9 9 9 9 9 9 9 9 9 9 9 9 9 9 9 9 9 9 9 9 9 9 9 9 9
5 5 4 4 3 3 2 2 4 3 3 3 4 5 1 0 1 3 5 6 7 7 6 6 6 7 9 9 10 9 9 9 9 10 10 10 9 9 9 9 9 8 9 9 9 9 8 9 9
4 5 3 3 4 4 2 2 2 3 3 2 4 6 3 3 3 4 5 6 6 7 6 6 6 6 5 6 9 10 10 9 9 10 10 10 9 9 9 8 8 8 8 8 8 9 8 9 9
4 4 4 5 6 3 2 2 1 2 4 2 2 1 2 7 6 6 5 5 5 6 5 5 6 6 5 5 8 8 9 9 8 7 9 8 5 5 5 7 8 8 8 8 8 8 8 8 8
4 4 5 3 3 3 2 3 3 3 3 2 2 3 5 7 7 6 5 3 3 3 4 4 5 5 5 5 5 4 4 5 4 4 4 4 3 4 5 7 8 9 9 8 9 9 8 6 3
3 4 2 0 1 2 2 2 2 5 2 5 5 6 7 6 6 5 4 3 2 2 3 4 4 4 4 3 3 3 3 3 4 4 4 3 3 3 4 3 4 4 6 4 5 5 4 3 3
3 0 0 0 1 1 2 2 1 2 3 2 4 7 8 8 7 6 5 3 2 3 2 3 3 3 3 3 3 3 3 3 3 4 4 3 2 3 3 2 3 3 2 3 3 3 3 3 3
2 1 0 1 2 2 3 2 1 2 1 3 6 7 7 7 5 3 3 3 3 2 2 2 3 3 3 3 2 3 3 3 3 3 4 4 2 2 2 2 2 2 2 2 2 2 3 3 3
1 1 0 1 1 1 3 0 1 3 2 5 6 6 5 5 4 3 2 2 2 2 2 1 2 2 3 3 2 2 2 2 3 3 3 4 3 2 2 2 2 2 2 2 2 2 2 2 1
1 2 2 0 1 1 3 2 3 2 4 4 4 3 4 3 3 3 3 2 2 2 2 2 2 3 3 3 2 2 2 2 2 3 3 3 3 3 2 1 2 2 2 2 2 2 1 2 2
2 2 1 1 1 1 3 5 2 2 5 3 3 3 3 2 2 1 2 1 2 2 2 2 2 3 3 3 2 2 2 2 2 2 3 3 3 3 2 2 2 2 2 1 1 1 1 1 1
2 1 2 2 0 1 3 5 2 1 4 3 3 3 2 1 1 1 1 2 2 3 3 3 3 3 3 3 3 2 2 2 2 2 2 3 3 3 2 2 2 2 2 1 1 2 1 1 2
4 3 3 4 1 1 2 5 4 1 3 4 3 3 2 2 2 1 1 2 2 3 4 4 3 3 3 3 2 2 3 2 2 2 2 3 3 2 2 2 2 2 1 2 2 2 2 1 1
3 4 3 3 1 0 3 6 7 4 3 4 3 3 3 3 1 1 2 3 3 4 4 3 3 3 2 2 1 1 2 2 2 2 2 3 3 3 2 2 2 2 1 2 2 2 2 2 1
3 2 2 2 1 0 3 7 6 5 5 4 4 4 4 2 1 1 2 2 3 3 3 3 2 2 2 1 1 0 0 0 1 1 2 2 2 3 2 1 1 2 1 2 2 2 1 1 1
3 5 4 2 2 2 3 6 4 2 2 1 2 2 3 4 3 3 3 2 2 2 2 2 2 2 1 1 1 2 2 2 2 2 2 3 3 2 2 2 1 1 1 1 1 1 1 1 2
4 3 4 3 1 2 1 5 6 3 2 3 3 2 2 2 2 3 3 3 3 2 2 2 2 2 1 2 2 2 1 0 1 2 2 3 3 2 2 2 2 1 1 1 1 1 1 1 1
3 2 2 2 3 1 1 3 8 1 4 5 5 4 3 2 3 3 3 3 2 2 2 2 2 1 1 1 2 1 0 0 1 2 2 3 2 2 2 2 2 2 1 1 1 2 1 1 1
3 4 4 4 3 4 5 6 8 5 6 4 3 3 3 3 2 2 2 1 1 1 1 1 2 1 1 1 1 1 1 1 1 2 2 2 2 2 2 2 2 2 2 2 2 2 2 2 2
2 4 3 3 1 7 3 5 10 6 4 4 5 4 4 3 3 2 2 2 1 1 0 0 1 1 1 1 1 2 2 2 2 2 2 2 2 2 3 3 2 2 2 3 2 2 2 2 3
3 5 6 6 6 4 1 7 8 3 2 1 2 2 2 2 2 3 3 3 3 2 1 1 1 1 1 2 2 2 2 2 2 3 2 3 3 3 3 3 3 3 3 3 3 2 3 2 3
3 3 3 4 1 3 6 7 8 1 1 1 1 1 2 2 2 2 2 2 2 2 2 2 2 1 1 2 2 2 3 3 3 3 3 3 3 3 3 3 4 4 3 3 3 3 3 3 3
1 4 3 4 4 5 6 5 5 4 4 2 2 2 2 2 2 2 1 1 2 2 2 1 2 2 2 2 2 2 3 3 3 3 4 4 4 4 4 4 4 4 4 4 3 4 3 3 4
2 2 3 3 3 4 5 7 4 5 4 4 3 3 3 3 2 2 2 1 1 1 1 1 2 2 2 2 2 3 3 3 3 4 4 5 5 4 4 5 4 4 4 4 4 4 4 4 4
2 4 5 4 5 4 3 9 2 3 2 2 2 2 2 2 2 2 1 1 1 1 1 2 2 2 3 3 3 3 3 3 3 4 5 5 5 5 5 5 5 5 5 4 5 5 5 5 5
Wind_Direction
349 3 61 58 58 57 213 229 193 176 185 95 88 109 129 132 147 158 195 22 48 69 360 80 85 90 85 81 80 75 72 69 68 67 66 65 64 63 62 62 62 64 66 67 67 66 68 70 74
345 18 55 62 96 161 248 223 197 194 159 115 67 74 85 81 54 90 83 349 61 71 50 79 86 90 86 81 78 77 74 71 70 68 67 66 65 63 60 61 62 63 65 67 67 67 66 67 72
15 48 81 82 132 187 213 208 195 144 116 108 87 59 87 91 61 116 358 88 66 54 42 81 88 88 88 83 78 75 72 71 71 69 67 66 66 64 61 61 62 62 64 65 66 67 68 67 69
71 50 57 86 201 218 210 202 166 139 99 72 111 91 66 29 22 134 90 88 79 58 43 64 86 88 86 84 78 74 71 70 71 71 69 66 65 64 63 61 60 62 64 65 66 67 66 66 68
59 79 77 84 232 242 231 195 156 147 146 117 120 115 92 9 37 81 92 87 86 65 48 55 76 81 81 80 77 74 71 68 68 68 70 68 65 63 61 60 60 62 63 65 66 67 67 66 68
60 73 112 211 233 250 248 185 143 136 131 124 126 125 143 25 51 79 82 78 77 72 57 53 61 69 72 73 71 69 69 65 63 62 63 64 63 62 59 57 59 61 61 60 63 65 68 67 67
110 113 170 192 204 236 222 150 148 149 147 171 149 129 150 37 70 90 82 75 66 61 57 48 48 53 56 63 64 62 62 60 59 57 55 54 55 55 55 52 56 58 59 56 58 62 68 69 67
121 114 148 190 193 225 186 135 130 144 155 110 127 144 190 193 133 96 81 71 65 57 54 50 47 46 45 47 55 56 54 54 55 54 52 48 47 48 47 44 47 52 54 50 56 56 63 68 64
93 91 196 206 192 212 158 128 57 71 103 82 60 118 137 128 123 104 82 64 61 55 47 48 50 46 44 48 48 49 48 46 49 49 50 47 40 36 38 37 42 44 49 47 54 53 57 60 58
92 162 215 208 184 171 153 148 151 110 97 109 78 58 99 121 129 124 116 110 87 63 48 46 53 50 46 49 45 39 43 36 38 42 46 45 40 36 38 36 40 39 39 40 48 47 51 50 46
117 176 197 221 119 133 135 129 134 136 183 199 181 155 139 134 138 141 137 130 115 96 63 49 50 52 53 53 52 42 37 36 31 34 40 46 44 37 36 33 28 29 33 33 31 36 37 39 39
121 271 158 286 81 106 137 129 108 173 209 141 149 145 148 153 161 167 160 144 117 95 72 56 54 60 55 56 54 53 42 35 32 26 29 42 44 35 32 33 23 24 24 27 21 31 28 34 35
140 205 73 81 82 94 88 96 140 247 220 98 114 130 151 160 157 146 136 137 130 111 86 61 67 70 65 64 53 56 47 39 28 27 28 32 39 37 35 29 27 21 21 26 20 27 26 26 29
155 144 216 36 98 103 113 74 104 251 124 113 122 139 153 157 152 133 126 138 135 131 120 91 83 83 78 72 62 58 52 44 34 25 24 29 29 31 36 35 27 18 17 15 14 8 12 10 20
100 68 7 352 136 139 101 319 223 215 126 124 136 147 145 142 137 154 166 165 162 147 127 118 110 84 84 80 63 57 53 49 45 22 18 27 26 22 24 35 27 7 6 18 20 11 10 10 13
63 72 292 284 150 149 136 248 222 166 144 158 164 158 148 140 140 142 130 131 141 137 126 107 97 83 79 76 71 63 53 50 42 25 15 20 22 22 25 29 18 360 1 15 26 10 5 4 356
36 206 238 288 129 125 169 238 240 158 156 185 188 180 167 146 102 107 111 120 129 138 128 111 93 88 76 69 63 59 53 44 33 27 19 9 9 19 29 24 8 7 14 8 4 8 351 351 341
213 211 230 243 312 93 216 252 273 228 188 211 205 194 188 195 216 172 111 106 108 110 108 105 92 82 77 70 62 51 46 32 26 25 14 8 3 9 27 31 11 12 21 13 5 356 348 338 313
161 173 218 253 334 125 239 265 275 262 219 229 226 205 208 223 220 111 104 98 94 89 94 101 94 86 83 72 62 52 29 9 8 6 10 10 7 8 29 28 18 12 16 359 359 3 351 354 347
150 171 225 297 20 281 292 282 272 245 225 218 210 210 211 201 139 126 114 109 114 117 114 110 105 97 93 87 86 118 93 353 339 344 4 5 5 1 8 33 10 1 4 12 5 18 341 333 350
207 198 203 218 6 36 341 300 270 254 211 218 220 207 199 189 189 180 166 157 137 141 152 144 133 111 94 80 74 55 39 15 9 359 355 352 358 352 353 351 353 350 3 344 318 348 349 310 315
242 208 177 168 107 285 79 285 277 245 253 235 231 222 214 201 180 176 174 171 175 185 168 153 142 121 112 109 106 109 91 330 308 320 324 330 346 348 340 344 339 320 333 306 298 328 303 300 294
197 95 127 146 153 297 257 227 277 256 248 241 227 222 217 202 187 185 183 185 186 172 166 164 142 127 130 128 138 138 126 265 310 321 327 326 329 335 337 328 328 314 294 283 285 302 305 280 278
127 77 62 61 88 260 220 195 268 230 220 223 213 215 215 207 204 208 188 139 100 77 93 140 144 154 160 154 152 167 192 223 289 317 317 317 314 315 317 317 301 302 295 277 264 266 271 275 273
94 99 37 349 315 249 185 208 250 246 223 204 208 214 213 208 201 202 185 169 166 164 159 117 170 228 202 183 202 212 215 215 227 246 265 292 303 304 297 302 291 284 288 285 270 256 266 269 265
196 158 168 204 229 269 239 232 254 264 256 229 221 215 211 215 209 211 208 192 191 195 204 198 221 267 234 225 238 237 231 226 238 243 241 254 266 272 276 274 276 277 273 283 281 254 252 256 258
150 199 165 136 145 270 259 276 296 281 280 247 243 224 232 235 231 229 222 203 197 201 214 212 222 256 261 256 251 242 236 237 245 251 247 252 263 271 269 266 267 273 273 267 279 262 245 244 249
153 146 121 152 193 247 273 261 249 264 252 239 227 230 250 252 256 257 234 217 225 222 236 235 232 245 251 252 259 277 261 252 244 249 257 258 263 265 264 266 264 265 270 264 265 274 250 241 252
138 148 160 166 187 193 255 264 228 222 223 220 233 236 240 249 251 248 254 249 248 272 258 258 259 273 276 270 271 273 273 274 257 249 253 255 259 261 255 257 262 263 263 258 253 265 253 244 252
187 186 163 179 229 207 225 268 286 227 232 211 245 264 264 261 253 240 244 266 290 273 266 263 268 275 279 277 271 265 268 273 270 262 257 255 256 259 255 255 257 260 260 255 251 262 258 245 249